����������;��������(kVARh)
2019-08-05 00:00;17,4
2019-08-05 00:15;19,5
2019-08-05 00:30;18,85
2019-08-05 00:45;20
2019-08-05 01:00;22,6
2019-08-05 01:15;21,75
2019-08-05 01:30;18,45
2019-08-05 01:45;17,2
2019-08-05 02:00;14,6
2019-08-05 02:15;14,7
2019-08-05 02:30;14,55
2019-08-05 02:45;13,75
2019-08-05 03:00;14,25
2019-08-05 03:15;15,2
2019-08-05 03:30;14,6
2019-08-05 03:45;15
2019-08-05 04:00;15,35
2019-08-05 04:15;14,35
2019-08-05 04:30;14,1
2019-08-05 04:45;14,4
2019-08-05 05:00;14,2
2019-08-05 05:15;14,5
2019-08-05 05:30;15,45
2019-08-05 05:45;14,9
2019-08-05 06:00;13,35
2019-08-05 06:15;12,9
2019-08-05 06:30;13,5
2019-08-05 06:45;13,85
2019-08-05 07:00;14,5
2019-08-05 07:15;12,35
2019-08-05 07:30;10,45
2019-08-05 07:45;9,25
2019-08-05 08:00;9,7
2019-08-05 08:15;11,05
2019-08-05 08:30;15,25
2019-08-05 08:45;24,5
2019-08-05 09:00;22,2
2019-08-05 09:15;29
2019-08-05 09:30;36,15
2019-08-05 09:45;35,85
2019-08-05 10:00;33,75
2019-08-05 10:15;32,2
2019-08-05 10:30;31,1
2019-08-05 10:45;30,25
2019-08-05 11:00;29,65
2019-08-05 11:15;32,75
2019-08-05 11:30;34,65
2019-08-05 11:45;36,85
2019-08-05 12:00;35,25
2019-08-05 12:15;36,25
2019-08-05 12:30;36,8
2019-08-05 12:45;35,3
2019-08-05 13:00;36,45
2019-08-05 13:15;7,2
2019-08-05 13:30;15,8
2019-08-05 13:45;34,4
2019-08-05 14:00;29,2
2019-08-05 14:15;29,65
2019-08-05 14:30;31,55
2019-08-05 14:45;32,2
2019-08-05 15:00;32,65
2019-08-05 15:15;31
2019-08-05 15:30;29,9
2019-08-05 15:45;30,4
2019-08-05 16:00;29,3
2019-08-05 16:15;26,1
2019-08-05 16:30;24,5
2019-08-05 16:45;25,85
2019-08-05 17:00;25,75
2019-08-05 17:15;26,95
2019-08-05 17:30;26,65
2019-08-05 17:45;30,05
2019-08-05 18:00;28,75
2019-08-05 18:15;26,3
2019-08-05 18:30;26,1
2019-08-05 18:45;27,55
2019-08-05 19:00;26,85
2019-08-05 19:15;27,95
2019-08-05 19:30;29,4
2019-08-05 19:45;29,25
2019-08-05 20:00;29,2
2019-08-05 20:15;29,05
2019-08-05 20:30;27,35
2019-08-05 20:45;28,8
2019-08-05 21:00;25,75
2019-08-05 21:15;27,3
2019-08-05 21:30;29,55
2019-08-05 21:45;31,3
2019-08-05 22:00;26,1
2019-08-05 22:15;19
2019-08-05 22:30;10,95
2019-08-05 22:45;11,3
2019-08-05 23:00;15,05
2019-08-05 23:15;14,7
2019-08-05 23:30;16,05
2019-08-05 23:45;19,85
2019-08-06 00:00;15,85
2019-08-06 00:15;15,1
2019-08-06 00:30;17,1
2019-08-06 00:45;18,35
2019-08-06 01:00;18,4
2019-08-06 01:15;14,5
2019-08-06 01:30;15,3
2019-08-06 01:45;15,6
2019-08-06 02:00;15,05
2019-08-06 02:15;15,2
2019-08-06 02:30;15,95
2019-08-06 02:45;15,75
2019-08-06 03:00;16,55
2019-08-06 03:15;18,2
2019-08-06 03:30;17,95
2019-08-06 03:45;18,55
2019-08-06 04:00;19,7
2019-08-06 04:15;19,6
2019-08-06 04:30;19,9
2019-08-06 04:45;19,55
2019-08-06 05:00;20,6
2019-08-06 05:15;20,55
2019-08-06 05:30;20,6
2019-08-06 05:45;19,85
2019-08-06 06:00;18,25
2019-08-06 06:15;16,75
2019-08-06 06:30;17,65
2019-08-06 06:45;18,45
2019-08-06 07:00;17,25
2019-08-06 07:15;15,95
2019-08-06 07:30;15,85
2019-08-06 07:45;13,85
2019-08-06 08:00;12,45
2019-08-06 08:15;13,95
2019-08-06 08:30;12,45
2019-08-06 08:45;12,5
2019-08-06 09:00;9,55
2019-08-06 09:15;8,45
2019-08-06 09:30;17
2019-08-06 09:45;17,45
2019-08-06 10:00;19,35
2019-08-06 10:15;24,15
2019-08-06 10:30;23,5
2019-08-06 10:45;23,3
2019-08-06 11:00;24,35
2019-08-06 11:15;24,8
2019-08-06 11:30;27,6
2019-08-06 11:45;29,4
2019-08-06 12:00;28,9
2019-08-06 12:15;27,75
2019-08-06 12:30;29,55
2019-08-06 12:45;28,55
2019-08-06 13:00;29,1
2019-08-06 13:15;30,7
2019-08-06 13:30;31,7
2019-08-06 13:45;31,6
2019-08-06 14:00;33,05
2019-08-06 14:15;31,75
2019-08-06 14:30;32,75
2019-08-06 14:45;33,8
2019-08-06 15:00;34,2
2019-08-06 15:15;28,4
2019-08-06 15:30;25,6
2019-08-06 15:45;26,8
2019-08-06 16:00;27,2
2019-08-06 16:15;25,7
2019-08-06 16:30;24,95
2019-08-06 16:45;23,95
2019-08-06 17:00;24,7
2019-08-06 17:15;23,45
2019-08-06 17:30;24,75
2019-08-06 17:45;23,5
2019-08-06 18:00;18,2
2019-08-06 18:15;18,25
2019-08-06 18:30;25,05
2019-08-06 18:45;23,65
2019-08-06 19:00;23,55
2019-08-06 19:15;23,9
2019-08-06 19:30;23,9
2019-08-06 19:45;24,4
2019-08-06 20:00;22,95
2019-08-06 20:15;22,25
2019-08-06 20:30;22,2
2019-08-06 20:45;21,8
2019-08-06 21:00;19,4
2019-08-06 21:15;22,5
2019-08-06 21:30;24,8
2019-08-06 21:45;25,1
2019-08-06 22:00;24,1
2019-08-06 22:15;23,8
2019-08-06 22:30;23,6
2019-08-06 22:45;12,8
2019-08-06 23:00;14,4
2019-08-06 23:15;15,05
2019-08-06 23:30;18,65
2019-08-06 23:45;19,45
2019-08-07 00:00;17,95
2019-08-07 00:15;19,35
2019-08-07 00:30;18,25
2019-08-07 00:45;18,6
2019-08-07 01:00;19,5
2019-08-07 01:15;20,75
2019-08-07 01:30;20,55
2019-08-07 01:45;12,2
2019-08-07 02:00;12,75
2019-08-07 02:15;12,75
2019-08-07 02:30;12,75
2019-08-07 02:45;12,4
2019-08-07 03:00;13,6
2019-08-07 03:15;14,5
2019-08-07 03:30;15,45
2019-08-07 03:45;15,8
2019-08-07 04:00;14,75
2019-08-07 04:15;13,85
2019-08-07 04:30;13,45
2019-08-07 04:45;14,45
2019-08-07 05:00;14,6
2019-08-07 05:15;14,85
2019-08-07 05:30;14,6
2019-08-07 05:45;15,45
2019-08-07 06:00;14,25
2019-08-07 06:15;12,75
2019-08-07 06:30;12,55
2019-08-07 06:45;11,85
2019-08-07 07:00;12,85
2019-08-07 07:15;10,45
2019-08-07 07:30;8,95
2019-08-07 07:45;7,35
2019-08-07 08:00;8,3
2019-08-07 08:15;7
2019-08-07 08:30;8,05
2019-08-07 08:45;7,2
2019-08-07 09:00;5,35
2019-08-07 09:15;5,7
2019-08-07 09:30;6,95
2019-08-07 09:45;12,2
2019-08-07 10:00;17,75
2019-08-07 10:15;17,55
2019-08-07 10:30;16,75
2019-08-07 10:45;16,7
2019-08-07 11:00;17,65
2019-08-07 11:15;17,35
2019-08-07 11:30;22,9
2019-08-07 11:45;26,8
2019-08-07 12:00;27,25
2019-08-07 12:15;26,15
2019-08-07 12:30;27,1
2019-08-07 12:45;28
2019-08-07 13:00;26,05
2019-08-07 13:15;25,55
2019-08-07 13:30;26,5
2019-08-07 13:45;26,5
2019-08-07 14:00;26,3
2019-08-07 14:15;26,25
2019-08-07 14:30;26,55
2019-08-07 14:45;28,95
2019-08-07 15:00;28,5
2019-08-07 15:15;28,25
2019-08-07 15:30;24,45
2019-08-07 15:45;20,2
2019-08-07 16:00;25
2019-08-07 16:15;24,65
2019-08-07 16:30;27,3
2019-08-07 16:45;25,6
2019-08-07 17:00;25,75
2019-08-07 17:15;27,5
2019-08-07 17:30;27,7
2019-08-07 17:45;27,65
2019-08-07 18:00;25,75
2019-08-07 18:15;22,1
2019-08-07 18:30;18,55
2019-08-07 18:45;19,45
2019-08-07 19:00;18,65
2019-08-07 19:15;20,65
2019-08-07 19:30;21,35
2019-08-07 19:45;20,4
2019-08-07 20:00;20,4
2019-08-07 20:15;20,6
2019-08-07 20:30;18,2
2019-08-07 20:45;15,55
2019-08-07 21:00;16,6
2019-08-07 21:15;16,7
2019-08-07 21:30;17,95
2019-08-07 21:45;19,95
2019-08-07 22:00;19,9
2019-08-07 22:15;13,45
2019-08-07 22:30;14,4
2019-08-07 22:45;12,1
2019-08-07 23:00;15,7
2019-08-07 23:15;15
2019-08-07 23:30;17,9
2019-08-07 23:45;20,5
2019-08-08 00:00;15,85
2019-08-08 00:15;17,3
2019-08-08 00:30;17,5
2019-08-08 00:45;20,65
2019-08-08 01:00;20,3
2019-08-08 01:15;20,95
2019-08-08 01:30;22,2
2019-08-08 01:45;23,65
2019-08-08 02:00;23,3
2019-08-08 02:15;22,65
2019-08-08 02:30;23,95
2019-08-08 02:45;25,5
2019-08-08 03:00;25,2
2019-08-08 03:15;26,6
2019-08-08 03:30;26,9
2019-08-08 03:45;27,7
2019-08-08 04:00;28,8
2019-08-08 04:15;27,6
2019-08-08 04:30;26,75
2019-08-08 04:45;28,1
2019-08-08 05:00;28,95
2019-08-08 05:15;28,9
2019-08-08 05:30;28,8
2019-08-08 05:45;28,9
2019-08-08 06:00;28,15
2019-08-08 06:15;28,65
2019-08-08 06:30;27,65
2019-08-08 06:45;23,05
2019-08-08 07:00;19,55
2019-08-08 07:15;17,65
2019-08-08 07:30;18,85
2019-08-08 07:45;17,25
2019-08-08 08:00;15,35
2019-08-08 08:15;14,5
2019-08-08 08:30;23,05
2019-08-08 08:45;21,3
2019-08-08 09:00;20,3
2019-08-08 09:15;19,3
2019-08-08 09:30;18,1
2019-08-08 09:45;19,3
2019-08-08 10:00;21,1
2019-08-08 10:15;24,8
2019-08-08 10:30;22,75
2019-08-08 10:45;21,95
2019-08-08 11:00;21,4
2019-08-08 11:15;21,1
2019-08-08 11:30;20,8
2019-08-08 11:45;21
2019-08-08 12:00;21,7
2019-08-08 12:15;20,55
2019-08-08 12:30;25,2
2019-08-08 12:45;27,05
2019-08-08 13:00;26,6
2019-08-08 13:15;30,95
2019-08-08 13:30;32,15
2019-08-08 13:45;32
2019-08-08 14:00;34,3
2019-08-08 14:15;34,1
2019-08-08 14:30;32,6
2019-08-08 14:45;34
2019-08-08 15:00;35,05
2019-08-08 15:15;35,65
2019-08-08 15:30;30,35
2019-08-08 15:45;26,65
2019-08-08 16:00;28,4
2019-08-08 16:15;26,7
2019-08-08 16:30;25,05
2019-08-08 16:45;26,05
2019-08-08 17:00;26,15
2019-08-08 17:15;24,9
2019-08-08 17:30;25,2
2019-08-08 17:45;16,55
2019-08-08 18:00;15,45
2019-08-08 18:15;13,55
2019-08-08 18:30;12,45
2019-08-08 18:45;12,75
2019-08-08 19:00;12,25
2019-08-08 19:15;12,95
2019-08-08 19:30;18,95
2019-08-08 19:45;24,55
2019-08-08 20:00;26
2019-08-08 20:15;26,8
2019-08-08 20:30;23,4
2019-08-08 20:45;12,85
2019-08-08 21:00;13
2019-08-08 21:15;14,45
2019-08-08 21:30;14,7
2019-08-08 21:45;17,1
2019-08-08 22:00;17,7
2019-08-08 22:15;17,8
2019-08-08 22:30;19,05
2019-08-08 22:45;20,85
2019-08-08 23:00;22,85
2019-08-08 23:15;19,9
2019-08-08 23:30;16,65
2019-08-08 23:45;21,05
2019-08-09 00:00;17,15
2019-08-09 00:15;18,6
2019-08-09 00:30;20,55
2019-08-09 00:45;22,65
2019-08-09 01:00;23,8
2019-08-09 01:15;25,6
2019-08-09 01:30;14
2019-08-09 01:45;14,7
2019-08-09 02:00;13,45
2019-08-09 02:15;14,05
2019-08-09 02:30;15,7
2019-08-09 02:45;17,35
2019-08-09 03:00;16,7
2019-08-09 03:15;16,6
2019-08-09 03:30;9,25
2019-08-09 03:45;9,95
2019-08-09 04:00;10,9
2019-08-09 04:15;10,2
2019-08-09 04:30;7,45
2019-08-09 04:45;8,9
2019-08-09 05:00;7,5
2019-08-09 05:15;7,25
2019-08-09 05:30;7,9
2019-08-09 05:45;8,4
2019-08-09 06:00;6,45
2019-08-09 06:15;5,9
2019-08-09 06:30;5,8
2019-08-09 06:45;5,7
2019-08-09 07:00;7,9
2019-08-09 07:15;23,75
2019-08-09 07:30;27,55
2019-08-09 07:45;26,55
2019-08-09 08:00;22,7
2019-08-09 08:15;23,55
2019-08-09 08:30;20,4
2019-08-09 08:45;27,4
2019-08-09 09:00;25,5
2019-08-09 09:15;23,4
2019-08-09 09:30;25,7
2019-08-09 09:45;27,95
2019-08-09 10:00;27,7
2019-08-09 10:15;26,55
2019-08-09 10:30;26,3
2019-08-09 10:45;24,8
2019-08-09 11:00;24,25
2019-08-09 11:15;24,4
2019-08-09 11:30;25,65
2019-08-09 11:45;24,6
2019-08-09 12:00;25,2
2019-08-09 12:15;26,1
2019-08-09 12:30;25,65
2019-08-09 12:45;27,6
2019-08-09 13:00;28,3
2019-08-09 13:15;26,55
2019-08-09 13:30;26,1
2019-08-09 13:45;26,5
2019-08-09 14:00;25,8
2019-08-09 14:15;24,4
2019-08-09 14:30;27,6
2019-08-09 14:45;31
2019-08-09 15:00;30,65
2019-08-09 15:15;31,7
2019-08-09 15:30;26,6
2019-08-09 15:45;25,75
2019-08-09 16:00;26,25
2019-08-09 16:15;25,5
2019-08-09 16:30;25,4
2019-08-09 16:45;25,35
2019-08-09 17:00;25
2019-08-09 17:15;24,65
2019-08-09 17:30;27,35
2019-08-09 17:45;22,8
2019-08-09 18:00;19
2019-08-09 18:15;17,6
2019-08-09 18:30;14,2
2019-08-09 18:45;16,8
2019-08-09 19:00;20,6
2019-08-09 19:15;20,25
2019-08-09 19:30;20,8
2019-08-09 19:45;22,55
2019-08-09 20:00;21,95
2019-08-09 20:15;22,85
2019-08-09 20:30;22,9
2019-08-09 20:45;22,8
2019-08-09 21:00;31,35
2019-08-09 21:15;34,55
2019-08-09 21:30;27,3
2019-08-09 21:45;30,25
2019-08-09 22:00;32,05
2019-08-09 22:15;26,95
2019-08-09 22:30;24,1
2019-08-09 22:45;26,85
2019-08-09 23:00;27,85
2019-08-09 23:15;23,25
2019-08-09 23:30;27,35
2019-08-09 23:45;28,65
2019-08-10 00:00;28,5
2019-08-10 00:15;27,75
2019-08-10 00:30;25,2
2019-08-10 00:45;25,2
2019-08-10 01:00;27,5
2019-08-10 01:15;29,85
2019-08-10 01:30;21,75
2019-08-10 01:45;13,7
2019-08-10 02:00;14,35
2019-08-10 02:15;15,85
2019-08-10 02:30;15,9
2019-08-10 02:45;16,3
2019-08-10 03:00;16,55
2019-08-10 03:15;18,3
2019-08-10 03:30;18,8
2019-08-10 03:45;18,25
2019-08-10 04:00;20,45
2019-08-10 04:15;20,25
2019-08-10 04:30;19,25
2019-08-10 04:45;19,25
2019-08-10 05:00;20,45
2019-08-10 05:15;20,35
2019-08-10 05:30;20,65
2019-08-10 05:45;20,9
2019-08-10 06:00;18,45
2019-08-10 06:15;17,3
2019-08-10 06:30;17,6
2019-08-10 06:45;16,85
2019-08-10 07:00;18,2
2019-08-10 07:15;17,85
2019-08-10 07:30;16,7
2019-08-10 07:45;16,9
2019-08-10 08:00;19,15
2019-08-10 08:15;18,6
2019-08-10 08:30;18,6
2019-08-10 08:45;19,45
2019-08-10 09:00;18,2
2019-08-10 09:15;16,15
2019-08-10 09:30;15,75
2019-08-10 09:45;15,15
2019-08-10 10:00;13,4
2019-08-10 10:15;17,25
2019-08-10 10:30;15
2019-08-10 10:45;14,1
2019-08-10 11:00;15
2019-08-10 11:15;14,45
2019-08-10 11:30;13,5
2019-08-10 11:45;15,4
2019-08-10 12:00;14,8
2019-08-10 12:15;13,7
2019-08-10 12:30;14,45
2019-08-10 12:45;14,25
2019-08-10 13:00;13,6
2019-08-10 13:15;12,9
2019-08-10 13:30;13,55
2019-08-10 13:45;13,4
2019-08-10 14:00;12,25
2019-08-10 14:15;13,35
2019-08-10 14:30;12,6
2019-08-10 14:45;13,2
2019-08-10 15:00;13,15
2019-08-10 15:15;15,3
2019-08-10 15:30;15,95
2019-08-10 15:45;17,35
2019-08-10 16:00;17,9
2019-08-10 16:15;14,4
2019-08-10 16:30;15,1
2019-08-10 16:45;14
2019-08-10 17:00;13,65
2019-08-10 17:15;12,55
2019-08-10 17:30;14,2
2019-08-10 17:45;13,75
2019-08-10 18:00;15,85
2019-08-10 18:15;16,2
2019-08-10 18:30;15,35
2019-08-10 18:45;15,15
2019-08-10 19:00;15,4
2019-08-10 19:15;17,25
2019-08-10 19:30;18,35
2019-08-10 19:45;19,65
2019-08-10 20:00;18,75
2019-08-10 20:15;17,7
2019-08-10 20:30;18,65
2019-08-10 20:45;17,7
2019-08-10 21:00;17,6
2019-08-10 21:15;17,05
2019-08-10 21:30;16,9
2019-08-10 21:45;18,4
2019-08-10 22:00;18,55
2019-08-10 22:15;19,15
2019-08-10 22:30;18,65
2019-08-10 22:45;17,9
2019-08-10 23:00;21,05
2019-08-10 23:15;21,45
2019-08-10 23:30;16,7
2019-08-10 23:45;14,3
2019-08-11 00:00;11,6
2019-08-11 00:15;12,75
2019-08-11 00:30;14,65
2019-08-11 00:45;14,35
2019-08-11 01:00;15,65
2019-08-11 01:15;17,4
2019-08-11 01:30;14,6
2019-08-11 01:45;14,15
2019-08-11 02:00;9,6
2019-08-11 02:15;8,75
2019-08-11 02:30;9,05
2019-08-11 02:45;9,2
2019-08-11 03:00;12,6
2019-08-11 03:15;12,85
2019-08-11 03:30;13,4
2019-08-11 03:45;15
2019-08-11 04:00;14,15
2019-08-11 04:15;14,7
2019-08-11 04:30;15,4
2019-08-11 04:45;14,45
2019-08-11 05:00;13,95
2019-08-11 05:15;14,3
2019-08-11 05:30;14,65
2019-08-11 05:45;14,95
2019-08-11 06:00;13,05
2019-08-11 06:15;12,75
2019-08-11 06:30;13,95
2019-08-11 06:45;13,55
2019-08-11 07:00;16,1
2019-08-11 07:15;15,85
2019-08-11 07:30;17,45
2019-08-11 07:45;22,85
2019-08-11 08:00;23,6
2019-08-11 08:15;21,15
2019-08-11 08:30;18,45
2019-08-11 08:45;16,6
2019-08-11 09:00;15,5
2019-08-11 09:15;16,2
2019-08-11 09:30;14,55
2019-08-11 09:45;14,85
2019-08-11 10:00;18,15
2019-08-11 10:15;16,7
2019-08-11 10:30;15,8
2019-08-11 10:45;15,65
2019-08-11 11:00;14,75
2019-08-11 11:15;13,8
2019-08-11 11:30;15,6
2019-08-11 11:45;14,25
2019-08-11 12:00;14,65
2019-08-11 12:15;15,25
2019-08-11 12:30;14,25
2019-08-11 12:45;13,55
2019-08-11 13:00;14,9
2019-08-11 13:15;13,95
2019-08-11 13:30;13,8
2019-08-11 13:45;14,75
2019-08-11 14:00;13,2
2019-08-11 14:15;13,9
2019-08-11 14:30;14,85
2019-08-11 14:45;15,2
2019-08-11 15:00;14,4
2019-08-11 15:15;15,4
2019-08-11 15:30;16,3
2019-08-11 15:45;15,5
2019-08-11 16:00;14,9
2019-08-11 16:15;16,6
2019-08-11 16:30;15,75
2019-08-11 16:45;15,85
2019-08-11 17:00;15,9
2019-08-11 17:15;14,15
2019-08-11 17:30;14,05
2019-08-11 17:45;15,1
2019-08-11 18:00;14,35
2019-08-11 18:15;13,15
2019-08-11 18:30;15,45
2019-08-11 18:45;14,15
2019-08-11 19:00;13,95
2019-08-11 19:15;14,85
2019-08-11 19:30;15,75
2019-08-11 19:45;15,35
2019-08-11 20:00;15,35
2019-08-11 20:15;14,5
2019-08-11 20:30;14,35
2019-08-11 20:45;14,65
2019-08-11 21:00;13,3
2019-08-11 21:15;13,5
2019-08-11 21:30;14,35
2019-08-11 21:45;15,2
2019-08-11 22:00;13,8
2019-08-11 22:15;13,45
2019-08-11 22:30;14,35
2019-08-11 22:45;16,45
2019-08-11 23:00;13,95
2019-08-11 23:15;12,7
2019-08-11 23:30;14,85
2019-08-11 23:45;15,25

